Terminal Aerodrome Forecast
Issued by NWS

Home | Current Version | Previous Version | Graphics & Text | Print | Product List | Glossary On
Versions: 1 2 3 4 5 6 7 8 9 10 11 12 13 14 15 16 17 18 19 20 21 22 23 24 25 26 27 28 29 30
000
FTUS45 KGGW 231700
TAFGDV
TAF
KGDV 231720Z 2318/2418 10012KT P6SM SCT210
     FM240000 13017G26KT P6SM VCTS SCT110CB
     FM240600 12012KT P6SM SCT250
     FM241200 12008KT P6SM SCT230
      AMD LTD TO CLD VIS AND WIND=

USA.gov is the U.S. government's official web portal to all federal, state and local government web resources and services.